GW6363 Weather Reports


time (UTC)temp
C
wind
direction
speed
KPH
gust
KPH
rain 1hr
cm
rain 24hr
cm
rain mn
cm
humidity
%
barometer
mb
20260505130210 16 73 1.6 3.2 0.00 0.00 0.00 65 1015.6
20260505124700 15 47 3.2 4.8 0.00 0.00 0.00 71 1015.4
20260505124157 15 71 4.8 4.8 0.00 0.00 0.00 72 1015.4
20260505123653 15 62 1.6 3.2 0.00 0.00 0.00 72 1015.3
20260505123150 15 59 3.2 3.2 0.00 0.00 0.00 72 1015.1
20260505122646 14 73 1.6 3.2 0.00 0.00 0.00 70 1015.3
20260505122143 13 50 0.0 3.2 0.00 0.00 0.00 73 1015.0
20260505121640 13 67 1.6 3.2 0.00 0.00 0.00 77 1014.9
20260505121137 12 74 1.6 3.2 0.00 0.00 0.00 81 1015.0
20260505120633 12 61 1.6 3.2 0.00 0.00 0.00 84 1015.0
20260505120129 12 66 1.6 3.2 0.00 0.00 0.00 85 1015.1
20260505115623 12 63 1.6 3.2 0.00 0.00 0.00 85 1015.0
20260505115121 11 70 3.2 3.2 0.00 0.00 0.00 86 1014.9
20260505114618 11 58 1.6 3.2 0.00 0.00 0.00 85 1015.0
20260505114114 11 43 1.6 3.2 0.00 0.00 0.00 85 1014.6
20260505113611 11 57 3.2 3.2 0.00 0.00 0.00 85 1014.8
20260505113108 11 71 1.6 3.2 0.00 0.00 0.00 85 1014.9
20260505112604 11 85 3.2 3.2 0.00 0.00 0.00 85 1014.8
20260505112103 11 87 1.6 3.2 0.00 0.00 0.00 86 1014.8
20260505111601 10 85 3.2 3.2 0.00 0.00 0.00 86 1014.5
20260505111058 10 87 3.2 4.8 0.00 0.00 0.00 85 1014.3
20260505110554 10 80 3.2 3.2 0.00 0.00 0.00 85 1014.4
20260505102027 11 83 3.2 3.2 0.00 0.00 0.00 82 1014.3
20260505101525 11 65 1.6 3.2 0.00 0.00 0.00 82 1014.3
20260505101021 11 44 0.0 1.6 0.00 0.00 0.00 82 1014.2
20260505100519 11 67 3.2 3.2 0.00 0.00 0.00 79 1014.1
20260505100016 11 47 1.6 1.6 0.00 0.00 0.00 80 1014.2
20260505095511 11 52 3.2 3.2 0.00 0.00 0.00 79 1014.3
20260505095008 11 68 3.2 3.2 0.00 0.00 0.00 79 1014.5
20260505094504 11 55 3.2 3.2 0.00 0.00 0.00 78 1014.3
20260505094001 12 73 3.2 3.2 0.00 0.00 0.00 78 1014.5
20260505093457 12 58 1.6 3.2 0.00 0.00 0.00 77 1014.3
20260505092955 12 80 1.6 3.2 0.00 0.00 0.00 76 1014.4
20260505092452 12 63 1.6 3.2 0.00 0.00 0.00 75 1014.5
20260505091950 12 81 1.6 3.2 0.00 0.00 0.00 75 1014.2
20260505091447 13 78 1.6 3.2 0.00 0.00 0.00 73 1014.3
20260505090945 13 71 1.6 3.2 0.00 0.00 0.00 72 1014.4
20260505090443 13 81 3.2 3.2 0.00 0.00 0.00 70 1014.3
20260505085940 14 92 3.2 4.8 0.00 0.00 0.00 68 1014.1
20260505085437 15 39 1.6 3.2 0.00 0.00 0.00 65 1014.1
20260505084936 15 52 3.2 3.2 0.00 0.00 0.00 64 1013.9
20260505084434 15 41 1.6 3.2 0.00 0.00 0.00 64 1014.0
20260505083931 15 310 0.0 3.2 0.00 0.00 0.00 64 1013.9
20260505083428 15 37 0.0 6.4 0.00 0.00 0.00 65 1013.9
20260505082924 15 43 1.6 3.2 0.00 0.00 0.00 66 1013.6
20260505082420 15 55 3.2 3.2 0.00 0.00 0.00 64 1014.0
20260505081918 15 59 1.6 3.2 0.00 0.00 0.00 64 1013.7
20260505081415 15 53 1.6 3.2 0.00 0.00 0.00 64 1013.7
20260505080911 15 58 3.2 3.2 0.00 0.00 0.00 64 1013.7
20260505080407 15 52 0.0 3.2 0.00 0.00 0.00 64 1013.7
20260505075903 15 12 0.0 4.8 0.00 0.00 0.00 66 1013.7
20260505075359 14 48 3.2 3.2 0.00 0.00 0.00 69 1013.5
20260505074857 13 41 3.2 3.2 0.00 0.00 0.00 69 1013.6
20260505074354 13 85 1.6 3.2 0.00 0.00 0.00 70 1013.6
20260505073851 14 71 1.6 3.2 0.00 0.00 0.00 68 1013.8
20260505073349 14 75 3.2 3.2 0.00 0.00 0.00 68 1013.9
20260505072846 15 51 1.6 3.2 0.00 0.00 0.00 67 1013.7
20260505072342 15 83 3.2 3.2 0.00 0.00 0.00 66 1013.6
20260505071838 15 95 3.2 3.2 0.00 0.00 0.00 65 1013.8
20260505071335 15 59 3.2 3.2 0.00 0.00 0.00 65 1013.7
20260505070833 15 53 1.6 3.2 0.00 0.00 0.00 64 1013.9
20260505070329 16 76 3.2 3.2 0.00 0.00 0.00 63 1013.8
20260505065824 16 57 3.2 3.2 0.00 0.00 0.00 62 1013.7
20260505065321 16 0 0.0 3.2 0.00 0.00 0.00 61 1013.7
20260505064819 16 70 1.6 3.2 0.00 0.00 0.00 60 1013.9
20260505064315 16 76 0.0 3.2 0.00 0.00 0.00 60 1013.8
20260505063814 16 22 3.2 3.2 0.00 0.00 0.00 60 1013.9
20260505063309 16 68 3.2 3.2 0.00 0.00 0.00 59 1013.8
20260505062806 16 66 1.6 6.4 0.00 0.00 0.00 59 1013.8
20260505062304 16 83 0.0 3.2 0.00 0.00 0.00 60 1013.7
20260505061800 17 3 0.0 8.0 0.00 0.00 0.00 59 1013.9
20260505061258 17 125 0.0 8.0 0.00 0.00 0.00 59 1013.7
20260505060755 17 348 0.0 6.4 0.00 0.00 0.00 59 1013.7
20260505060252 17 285 0.0 6.4 0.00 0.00 0.00 59 1013.7
20260505055748 17 73 3.2 3.2 0.00 0.00 0.00 59 1013.7
20260505055244 17 143 0.0 6.4 0.00 0.00 0.00 58 1013.7
20260505054742 17 82 3.2 6.4 0.00 0.00 0.00 58 1013.8
20260505054239 17 73 0.0 3.2 0.00 0.00 0.00 59 1013.9
20260505053737 17 43 0.0 3.2 0.00 0.00 0.00 58 1013.9
20260505053234 17 59 3.2 3.2 0.00 0.00 0.00 59 1013.9
20260505052731 17 50 4.8 4.8 0.00 0.00 0.00 59 1014.0
20260505052228 17 49 0.0 3.2 0.00 0.00 0.00 59 1013.7
20260505051725 17 104 1.6 3.2 0.00 0.00 0.00 59 1013.7
20260505051223 17 42 3.2 6.4 0.00 0.00 0.00 59 1013.6
20260505050720 17 89 0.0 1.6 0.00 0.00 0.00 59 1013.5
20260505050219 17 86 3.2 4.8 0.00 0.00 0.00 58 1013.6
20260505041648 18 72 0.0 3.2 0.00 0.00 0.00 57 1013.5
20260505041146 17 89 0.0 6.4 0.00 0.00 0.00 57 1013.6
20260505040643 17 56 3.2 4.8 0.00 0.00 0.00 58 1013.5
20260505040140 17 77 3.2 3.2 0.00 0.00 0.00 58 1013.4
20260505035636 17 58 0.0 3.2 0.00 0.00 0.00 58 1013.5
20260505035132 17 45 0.0 3.2 0.00 0.00 0.00 58 1013.6
20260505034629 17 51 0.0 3.2 0.00 0.00 0.00 58 1013.6
20260505034126 18 309 0.0 3.2 0.00 0.00 0.00 57 1013.5
20260505033622 18 355 0.0 1.6 0.00 0.00 0.00 57 1013.5
20260505033121 18 23 0.0 3.2 0.00 0.00 0.00 57 1013.4
20260505032619 18 296 1.6 3.2 0.00 0.00 0.00 56 1013.5
20260505032115 18 66 0.0 4.8 0.00 0.00 0.00 56 1013.6
20260505031612 18 322 0.0 8.0 0.00 0.00 0.00 57 1013.6
20260505031108 18 59 1.6 3.2 0.00 0.00 0.00 58 1013.7
20260505030605 18 348 0.0 1.6 0.00 0.00 0.00 56 1013.4
20260505025557 18 55 1.6 3.2 0.00 0.00 0.00 55 1013.7
20260505025056 18 86 3.2 3.2 0.00 0.00 0.00 54 1013.7
20260505024553 19 205 3.2 3.2 0.00 0.00 0.00 54 1013.7
20260505024050 19 39 0.0 3.2 0.00 0.00 0.00 54 1013.7
20260505023547 19 65 0.0 4.8 0.00 0.00 0.00 54 1013.8
20260505023045 19 93 3.2 6.4 0.00 0.00 0.00 53 1013.8
20260505022542 19 112 0.0 6.4 0.00 0.00 0.00 53 1013.6
20260505022039 19 38 0.0 6.4 0.00 0.00 0.00 53 1013.6
20260505021536 20 301 0.0 1.6 0.00 0.00 0.00 54 1013.8
20260505021033 20 69 0.0 4.8 0.00 0.00 0.00 53 1013.7
20260505020532 20 296 0.0 3.2 0.00 0.00 0.00 52 1013.7
20260505020030 20 50 3.2 6.4 0.00 0.00 0.00 52 1013.5
20260505015527 20 342 0.0 3.2 0.00 0.00 0.00 51 1013.6
20260505015023 20 76 0.0 3.2 0.00 0.00 0.00 51 1013.5
20260505014520 20 298 1.6 3.2 0.00 0.00 0.00 51 1013.5
20260505014018 20 74 4.8 4.8 0.00 0.00 0.00 50 1013.4
20260505013515 21 111 0.0 3.2 0.00 0.00 0.00 50 1013.5
20260505013012 21 65 8.0 8.0 0.00 0.00 0.00 50 1013.3
20260505012510 21 93 1.6 4.8 0.00 0.00 0.00 50 1013.5
20260505012007 21 127 6.4 9.7 0.00 0.00 0.00 50 1013.4
20260505011502 21 77 3.2 3.2 0.00 0.00 0.00 50 1013.2
20260505010959 21 263 0.0 3.2 0.00 0.00 0.00 50 1013.2
20260505010455 21 296 1.6 6.4 0.00 0.00 0.00 50 1013.3
20260505005951 21 51 4.8 8.0 0.00 0.00 0.00 49 1013.1
20260505005448 21 59 3.2 4.8 0.00 0.00 0.00 49 1013.1
20260505004946 21 205 1.6 4.8 0.00 0.00 0.00 49 1013.0
20260505004442 21 288 0.0 4.8 0.00 0.00 0.00 49 1012.8
20260505003939 21 107 6.4 8.0 0.00 0.00 0.00 49 1012.9
20260505003436 21 230 4.8 4.8 0.00 0.00 0.00 48 1013.1
20260505002932 21 289 3.2 3.2 0.00 0.00 0.00 47 1012.9
20260505002429 22 70 3.2 4.8 0.00 0.00 0.00 47 1012.9
20260505001927 22 62 4.8 6.4 0.00 0.00 0.00 46 1012.9
20260505001425 22 53 6.4 8.0 0.00 0.00 0.00 46 1012.8
20260505000921 22 89 0.0 4.8 0.00 0.00 0.00 46 1012.7
20260505000420 22 74 3.2 3.2 0.00 0.00 0.00 45 1012.8
20260504235916 22 56 1.6 8.0 0.00 0.00 0.00 44 1012.7
20260504235414 23 94 1.6 1.6 0.00 0.00 0.00 44 1012.8
20260504234909 23 61 0.0 4.8 0.00 0.00 0.00 44 1012.7
20260504234407 23 59 1.6 3.2 0.00 0.00 0.00 44 1012.7
20260504233903 23 72 1.6 1.6 0.00 0.00 0.00 46 1012.7
20260504233359 23 46 3.2 4.8 0.00 0.00 0.00 45 1012.6
20260504232856 23 26 0.0 4.8 0.00 0.00 0.00 44 1012.7
20260504232353 23 69 8.0 8.0 0.00 0.00 0.00 44 1012.7
20260504231850 23 88 1.6 3.2 0.00 0.00 0.00 43 1012.9
20260504231346 23 335 0.0 4.8 0.00 0.00 0.00 43 1012.8
20260504230843 23 99 4.8 6.4 0.00 0.00 0.00 44 1012.7
20260504230340 24 282 0.0 6.4 0.00 0.00 0.00 43 1012.7
20260504225839 24 64 4.8 6.4 0.00 0.00 0.00 43 1012.5
20260504225335 24 116 4.8 6.4 0.00 0.00 0.00 42 1012.7
20260504224833 24 312 3.2 6.4 0.00 0.00 0.00 42 1012.6
20260504224329 24 67 4.8 6.4 0.00 0.00 0.00 41 1012.8
20260504223826 24 68 8.0 8.0 0.00 0.00 0.00 40 1012.8
20260504223321 24 148 3.2 4.8 0.00 0.00 0.00 40 1012.7
20260504222818 24 89 0.0 4.8 0.00 0.00 0.00 39 1012.7
20260504222315 25 31 6.4 8.0 0.00 0.00 0.00 39 1012.9
20260504221814 25 61 3.2 6.4 0.00 0.00 0.00 38 1012.8
20260504221310 25 76 1.6 6.4 0.00 0.00 0.00 40 1012.7
20260504220807 25 165 3.2 17.7 0.00 0.00 0.00 37 1012.9
20260504220304 26 23 1.6 6.4 0.00 0.00 0.00 36 1012.9
20260504215801 26 57 4.8 8.0 0.00 0.00 0.00 36 1012.9
20260504215257 26 66 4.8 8.0 0.00 0.00 0.00 36 1013.0
20260504214753 26 286 3.2 6.4 0.00 0.00 0.00 36 1012.8
20260504214250 26 45 6.4 14.5 0.00 0.00 0.00 36 1013.1
20260504213747 26 157 1.6 9.7 0.00 0.00 0.00 36 1013.2
20260504213243 26 128 8.0 16.1 0.00 0.00 0.00 34 1013.2
20260504212740 26 296 3.2 11.3 0.00 0.00 0.00 37 1012.9
20260504212237 26 257 3.2 8.0 0.00 0.00 0.00 37 1013.0
20260504211734 27 30 4.8 14.5 0.00 0.00 0.00 34 1013.1
20260504211230 27 285 3.2 6.4 0.00 0.00 0.00 40 1013.0
20260504210728 26 57 4.8 4.8 0.00 0.00 0.00 38 1013.1
20260504210225 26 1 1.6 6.4 0.00 0.00 0.00 37 1013.1
20260504205722 26 114 6.4 12.9 0.00 0.00 0.00 36 1013.1
20260504205220 26 86 4.8 12.9 0.00 0.00 0.00 37 1013.2
20260504204718 26 50 1.6 9.7 0.00 0.00 0.00 39 1013.2
20260504204216 26 257 1.6 12.9 0.00 0.00 0.00 42 1013.2
20260504203715 26 71 1.6 6.4 0.00 0.00 0.00 39 1013.5
20260504203212 26 42 6.4 9.7 0.00 0.00 0.00 41 1013.4
20260504202711 26 94 1.6 8.0 0.00 0.00 0.00 40 1013.3
20260504202209 26 139 3.2 8.0 0.00 0.00 0.00 39 1013.5
20260504201706 26 290 3.2 6.4 0.00 0.00 0.00 42 1013.7
20260504201203 26 232 0.0 4.8 0.00 0.00 0.00 40 1013.6
20260504200701 26 237 3.2 8.0 0.00 0.00 0.00 41 1013.6
20260504200157 26 276 4.8 9.7 0.00 0.00 0.00 40 1013.7
20260504195653 26 267 3.2 8.0 0.00 0.00 0.00 39 1013.8
20260504195149 26 70 4.8 4.8 0.00 0.00 0.00 44 1014.0
20260504194646 26 167 4.8 8.0 0.00 0.00 0.00 41 1013.8
20260504194142 26 290 1.6 4.8 0.00 0.00 0.00 43 1013.9
20260504193639 26 50 4.8 6.4 0.00 0.00 0.00 40 1013.8
20260504193137 26 29 1.6 9.7 0.00 0.00 0.00 44 1014.1
20260504192634 25 310 3.2 6.4 0.00 0.00 0.00 41 1014.2
20260504192132 25 245 3.2 12.9 0.00 0.00 0.00 40 1014.4
20260504191631 25 341 3.2 9.7 0.00 0.00 0.00 41 1014.4
20260504191127 25 306 0.0 8.0 0.00 0.00 0.00 49 1014.2
20260504190623 25 37 6.4 6.4 0.00 0.00 0.00 41 1014.4
20260504190120 25 59 3.2 6.4 0.00 0.00 0.00 43 1014.5
20260504185616 25 2 1.6 6.4 0.00 0.00 0.00 44 1014.5
20260504185113 25 192 0.0 8.0 0.00 0.00 0.00 41 1014.7
20260504184608 25 68 1.6 9.7 0.00 0.00 0.00 44 1014.7
20260504184103 25 73 1.6 9.7 0.00 0.00 0.00 42 1014.9
20260504183601 25 39 6.4 9.7 0.00 0.00 0.00 43 1015.0
20260504183059 25 48 3.2 6.4 0.00 0.00 0.00 44 1014.9
20260504182556 25 98 1.6 8.0 0.00 0.00 0.00 45 1015.1
20260504182053 25 80 4.8 6.4 0.00 0.00 0.00 42 1015.1
20260504181550 25 20 4.8 9.7 0.00 0.00 0.00 41 1015.4
20260504181048 25 47 9.7 11.3 0.00 0.00 0.00 43 1015.3
20260504180547 24 274 1.6 6.4 0.00 0.00 0.00 43 1015.4
20260504180046 24 110 4.8 9.7 0.00 0.00 0.00 41 1015.6
20260504175542 23 331 1.6 9.7 0.00 0.00 0.00 42 1015.5
20260504175039 23 58 3.2 11.3 0.00 0.00 0.00 42 1015.6
20260504174537 24 41 6.4 14.5 0.00 0.00 0.00 43 1015.5
20260504174033 24 110 0.0 8.0 0.00 0.00 0.00 44 1015.7
20260504173530 23 224 3.2 8.0 0.00 0.00 0.00 43 1015.7
20260504173028 23 71 9.7 14.5 0.00 0.00 0.00 42 1015.7
20260504172524 23 71 3.2 4.8 0.00 0.00 0.00 45 1015.9
20260504172020 23 19 3.2 6.4 0.00 0.00 0.00 44 1015.9
20260504171517 22 275 1.6 4.8 0.00 0.00 0.00 43 1015.9
20260504171014 22 174 1.6 9.7 0.00 0.00 0.00 44 1016.0
20260504170510 22 115 4.8 8.0 0.00 0.00 0.00 44 1016.0
20260504160431 20 85 6.4 8.0 0.00 0.00 0.00 46 1016.9
20260504150854 18 276 0.0 9.7 0.00 0.00 0.00 48 1017.5
20260504150351 18 55 3.2 3.2 0.00 0.00 0.00 52 1017.6
20260504141321 15 92 3.2 6.4 0.00 0.00 0.00 60 1018.5
20260504140817 15 247 3.2 6.4 0.00 0.00 0.00 61 1018.2
20260504140313 15 37 0.0 3.2 0.00 0.00 0.00 63 1018.5